Regional Weather Roundup
Issued by NWS

Home | Current Version | Previous Version | Text Only | Print | Product List | Glossary On
Versions: 1 2 3 4 5 6 7 8 9 10 11 12 13 14 15 16 17 18 19 20 21 22 23 24 25 26 27 28 29 30 31 32 33 34 35 36 37 38 39 40 41 42 43 44 45 46 47 48 49 50
000
ASUS43 KBIS 190210
RWRND

NORTH DAKOTA REGIONAL WEATHER ROUNDUP
NATIONAL WEATHER SERVICE BISMARCK ND
800 PM CST THU JAN 18 2018

NOTE: "FAIR" INDICATES FEW OR NO CLOUDS BELOW 12,000 FEET WITH NO
SIGNIFICANT WEATHER AND/OR OBSTRUCTIONS TO VISIBILITY.


NDZ001>003-009>011-017-190300-
NORTHWEST NORTH DAKOTA

CITY           SKY/WX    TMP DP  RH WIND       PRES   REMARKS
WILLISTON      CLOUDY    51  30  44 S5        29.62F
MINOT          CLOUDY    42  29  59 SW16G22   29.55F
MINOT AFB      CLOUDY    39  29  68 W12       29.54F
$$

NDZ018>021-031>035-040>046-190300-
SOUTHWEST NORTH DAKOTA

CITY           SKY/WX    TMP DP  RH WIND       PRES   REMARKS
BISMARCK       CLOUDY    30  25  81 CALM      29.66F
DICKINSON      CLOUDY    40  28  62 W18       29.64F
GARRISON         N/A     31  25  78 SW3       29.61F
HETTINGER ARPT CLOUDY    37  27  67 SW6       29.70F
$$

NDZ004>008-012>016-024-026-027-054-190300-
NORTHEAST NORTH DAKOTA

CITY           SKY/WX    TMP DP  RH WIND       PRES   REMARKS
GRAND FORKS    MOCLDY    26  22  84 S12       29.61F WCI  16
GRND FRKS AFB  FAIR      27  22  81 S9        29.60F WCI  17
DEVILS LAKE    FAIR      30  24  78 SW13      29.57F WCI  20
$$

NDZ022-023-025-028>030-036>039-047>053-190300-
SOUTHEAST NORTH DAKOTA

CITY           SKY/WX    TMP DP  RH WIND       PRES   REMARKS
FARGO          FAIR      28  24  85 S10       29.66F WCI  19
JAMESTOWN      CLOUDY    35  26  69 SW16      29.61F
$$




USA.gov is the U.S. government's official web portal to all federal, state and local government web resources and services.